Location: Arcueil
(48.7999°N, 2.3326°E)
Time: 21:55:05
(UTC+00:00)

IRIDIUM 103 - Pass Details

Date: 03 February 2023
Orbit: 776 x 779 km, 86.4° (Epoch: 21 March)

Event Time Altitude Azimuth Distance (km) Brightness Sun altitude
Rises 18:44:34 0° 355° (N) 3,276 7.6 -18.8°
Reaches altitude 10° 18:46:55 10° 355° (N) 2,343 6.8 -19.2°
Maximum altitude 18:52:11 84° 268° (W) 790 4.3 -20.1°
Drops below altitude 10° 18:57:23 10° 181° (S) 2,324 6.8 -20.9°
Sets 18:59:43 0° 181° (S) 3,246 7.6 -21.3°
